Location: Maccacari
(45.1333°N, 11.1333°E)
Time: 08:05:26
(UTC+00:00)

Cosmos 1634 Rocket - Pass Details

Date: 18 September 2020
Orbit: 961 x 991 km, 82.9° (Epoch: 29 October)

Event Time Altitude Azimuth Distance (km) Brightness Sun altitude
Exits shadow 19:34:23 49° 132° (SE) 1,218 4.1 -23.5°
Maximum altitude 19:35:32 57° 92° (E) 1,122 4.0 -23.7°
Drops below altitude 10° 19:41:35 10° 16° (NNE) 2,714 6.5 -24.6°
Sets 19:44:08 0° 12° (NNE) 3,668 7.2 -25.0°
